Dewpoint
-4 -6 -6 -8 -9 -6 -4 -3 -3 -4 -6 -6 -5 -4 -4 -5 -2 -2 -0 1 0 0 0 1 2 2 3 3 5 5 5 3 3 5 6 5 4 6 5 6 5 5 4 3 3 -0 1
-5 -5 -6 -7 -7 -8 -7 -4 -3 -4 -6 -6 -6 -4 -4 -4 -4 -1 -0 0 1 1 1 2 2 2 3 4 4 4 4 4 4 4 5 5 3 4 5 6 6 4 3 1 -1 -1 2
-5 -6 -7 -5 -5 -6 -6 -7 -6 -3 -4 -6 -6 -5 -4 -4 -4 -2 -0 -0 -0 0 2 2 3 3 3 3 4 5 5 5 5 5 4 3 3 2 5 6 4 1 2 -0 -1 -1 2
-7 -8 -9 -8 -6 -4 -4 -4 -5 -7 -4 -6 -6 -5 -5 -2 -2 -1 -1 -0 0 0 1 2 3 3 2 3 3 4 5 5 5 5 5 6 5 3 6 4 2 3 0 2 -0 -1 -1
-10 -10 -10 -9 -7 -6 -5 -4 -4 -4 -7 -5 -7 -6 -5 -4 -2 -1 -1 -1 -1 0 0 1 1 3 2 3 3 2 3 5 5 5 5 6 5 4 5 5 4 1 3 3 1 -1 -1
-12 -12 -12 -11 -9 -8 -7 -7 -5 -5 -5 -8 -6 -7 -6 -5 -4 -5 -3 -1 -0 -0 0 1 0 0 3 3 3 4 4 5 4 5 5 5 5 5 4 4 6 2 2 2 2 -1 -0
-14 -14 -13 -12 -10 -10 -10 -9 -9 -6 -6 -8 -9 -6 -7 -7 -6 -5 -5 -5 -1 -1 1 0 1 1 3 2 2 2 4 4 5 5 4 4 4 5 5 0 -2 -3 -2 1 0 -3 1
-14 -15 -14 -13 -12 -11 -11 -11 -11 -9 -5 -7 -8 -8 -8 -8 -8 -6 -5 -4 -4 -1 0 0 -1 -1 1 2 2 -1 -2 -0 2 2 1 1 1 -2 -1 -1 -3 -2 -1 0 -2 -3 -0
-14 -15 -15 -14 -13 -13 -12 -12 -12 -11 -5 -5 -5 -5 -8 -11 -11 -9 -6 -6 -5 -4 1 -2 -3 -4 -2 -1 -0 -4 -3 -2 1 4 4 1 -1 -2 -2 -1 -1 -3 -0 -0 -0 -4 -4
-15 -15 -15 -15 -14 -14 -14 -13 -13 -13 -6 -5 -5 -4 -9 -8 -3 -6 -5 -6 -7 -3 1 -3 -4 -4 -4 -3 -1 -5 -4 -2 -1 1 3 -1 -1 0 -0 -0 -0 -1 -3 -2 -1 -2 3
-15 -15 -16 -16 -15 -15 -15 -15 -14 -14 -11 -5 -5 -5 -7 -10 -7 -6 -7 -8 -2 -2 -3 -6 -4 -5 -4 -3 -4 -3 -5 -3 -2 -2 -2 -1 1 2 0 -1 -1 -3 -1 -3 -3 -2 -3
-14 -15 -15 -16 -16 -16 -16 -16 -15 -15 -13 -5 -6 -6 -5 -5 -7 -8 -6 -2 -2 -1 -6 -3 -4 -3 -3 -4 -4 -4 -3 -4 -4 -2 -2 -1 -1 0 1 -1 -1 -3 -3 -4 0 1 2
-13 -14 -15 -16 -16 -16 -16 -16 -16 -16 -15 -7 -6 -7 -5 -4 -1 -3 -4 -2 1 -1 -4 -3 -2 -3 -3 -4 -4 -3 -2 -2 -0 -0 -2 -1 -0 -0 -1 1 -2 -2 1 3 0 1 2
-13 -13 -15 -15 -15 -16 -16 -17 -17 -16 -16 -11 -5 -5 -7 -6 -3 -2 -3 -2 -4 -2 -1 -3 -2 -2 -3 -5 -4 -3 -2 -1 -3 -2 -1 3 1 0 -1 0 -0 -1 -0 5 1 5 3
-13 -13 -14 -15 -15 -16 -16 -17 -17 -15 -16 -11 -5 -5 -7 -7 -5 -2 2 1 1 -0 -1 -0 -1 -3 -3 -4 -5 -4 -2 -1 -2 -3 -0 -0 -1 -1 -1 -1 -1 -4 -1 -3 2 2 2
-12 -13 -14 -14 -15 -15 -16 -17 -17 -14 -14 -9 -5 -2 -4 -7 -2 1 -0 1 -0 -2 -2 -2 -2 -4 -3 -4 -4 -4 -2 -2 -1 -2 -3 -2 -3 -2 -2 -2 -2 -2 -4 3 3 2 2
-10 -12 -13 -14 -14 -15 -15 -16 -15 -14 -13 -9 -3 1 -6 -8 -0 -2 1 -1 -2 -3 -1 -1 -1 -3 -4 -4 -4 -3 -1 -1 -1 -1 -2 -3 -1 -3 -2 -1 -2 0 -1 -3 -2 1 2
-9 -10 -12 -13 -13 -14 -14 -14 -14 -13 -12 -10 -0 2 -5 -3 -1 -1 -1 -4 -4 -3 -2 -2 -2 -3 -3 -3 -3 -3 -1 -0 -1 -1 -0 -3 -2 0 -1 -2 -2 -3 -2 -3 1 -0 -1
-9 -9 -11 -12 -12 -11 -10 -12 -12 -11 -10 -11 -3 -2 -1 -3 1 -1 -2 -2 -1 -2 -1 -2 -3 -3 -4 -3 -0 -1 0 -1 -0 0 -1 -1 -4 0 -1 -1 -1 -2 -3 -3 -3 -2 -3
-13 -8 -10 -11 -12 -9 -7 -8 -9 -7 -8 -9 -3 1 -0 -3 -2 -3 -3 -2 -1 -2 -1 -1 -2 -2 -3 -3 -3 -2 0 1 0 -0 -1 0 -2 -3 -3 -5 -3 -1 -2 -3 -1 1 -3
-18 -8 -9 -10 -11 -8 -5 -4 -3 -3 -6 -8 -4 0 -3 1 -1 -3 -3 -3 -2 -0 -1 -2 -2 -3 -2 -2 -3 -2 -3 1 0 -1 -1 -2 -1 -3 -3 -4 -4 -4 -3 -2 -2 -3 -3
-17 -11 -8 -8 -10 -8 -5 -2 -1 -1 -4 -6 -4 -1 -3 -2 -3 -2 -2 -2 -2 -2 -2 -2 -2 -3 -3 -2 -2 -1 -2 -1 -1 -2 -2 -2 -1 -2 -2 -4 -4 -3 -3 -4 -3 -2 -2
-15 -12 -8 -7 -6 -6 -3 -1 -1 0 -2 -7 -6 -5 -2 -1 -2 -2 -2 -2 -2 -3 -2 -1 -2 -2 -2 -1 -2 -2 -2 -2 -3 -2 -1 -1 -1 -1 -2 -1 -1 -4 -3 -2 -3 -5 -5
2 -4 -4 -3 -2 -1 -1 0 0 1 -0 -4 -7 -7 -1 -1 -2 -2 -3 -3 -2 -2 -2 -2 -2 -2 -1 -3 -3 -2 -2 -2 -2 -2 -2 -0 -1 -0 1 -1 -3 -6 -4 -4 -3 -3 -4
3 3 2 1 1 0 1 1 1 2 2 -1 -4 -7 -2 -1 -3 -3 -3 -3 -2 -3 -2 -2 -2 -2 -3 -2 -1 -1 -1 -1 -1 -2 -2 -2 -0 0 2 2 -2 -3 -4 -3 -4 -2 -3
3 3 3 3 3 3 2 2 3 3 3 2 -1 -4 -5 -1 -2 -3 -2 -2 -1 -1 -1 -1 -2 -3 -3 -1 -1 -1 -1 -2 -0 -0 -2 -1 -1 0 1 2 2 -3 -6 -6 -5 -1 -5
3 3 3 3 4 4 3 3 2 3 3 3 1 -2 -4 -3 -2 -3 -2 -1 -2 -2 -1 -1 -2 -2 -2 -0 1 1 -0 -3 -2 -1 1 1 1 2 2 2 1 -4 -6 -5 -1 -2 -4
3 3 3 3 3 4 4 4 2 3 3 2 2 1 -2 -2 0 -3 -2 -1 -2 -1 -0 -1 -1 -0 -0 1 1 0 0 -1 -1 -1 0 1 1 1 1 2 3 -4 -4 -2 -3 -3 -2
3 3 3 2 3 3 4 4 3 4 4 3 3 2 1 1 2 1 -2 -2 -1 -1 -1 -1 -0 -1 -1 0 -0 -1 0 -1 -1 -0 -4 -1 -1 0 0 0 -3 -4 -3 -4 -3 -3 -2
Wind_Speed
21 22 22 20 18 15 13 11 8 6 6 8 10 13 17 19 19 13 16 15 14 13 10 9 8 9 8 6 6 6 4 2 1 5 8 12 11 8 6 6 10 8 7 20 23 18 24
18 21 22 22 20 17 15 13 10 8 6 7 8 12 15 18 14 15 12 12 14 13 12 10 12 15 8 4 9 9 4 1 4 9 8 11 10 12 4 7 12 12 15 14 8 14 8
16 19 20 20 20 20 19 15 11 9 7 6 6 10 13 16 13 12 11 11 11 10 9 8 6 8 16 7 10 5 6 2 0 4 11 8 13 10 7 8 18 17 6 8 5 6 2
14 17 18 19 19 20 20 20 16 9 7 5 4 6 10 11 11 11 12 10 11 9 8 7 4 6 3 10 13 7 4 4 1 11 18 14 18 13 5 8 4 5 6 4 4 3 3
13 15 16 17 18 19 21 23 22 14 7 6 4 4 5 5 5 8 11 11 16 17 4 6 12 1 6 14 13 8 7 2 12 18 8 5 7 7 11 2 3 6 5 4 1 2 2
12 14 15 17 18 20 21 23 25 21 11 6 7 7 7 7 7 9 11 10 8 17 8 2 13 7 13 12 13 8 10 7 6 7 4 5 5 1 4 4 6 5 6 4 6 4 3
10 12 14 15 17 19 21 23 25 24 15 8 7 8 10 10 10 8 7 15 6 4 12 11 7 9 1 6 8 10 6 9 3 3 3 5 5 5 17 8 5 3 4 3 2 1 3
9 11 13 14 16 18 20 22 24 25 16 12 9 9 10 12 12 10 8 4 5 2 2 4 6 8 7 4 4 13 15 7 6 4 4 6 3 3 5 6 2 5 6 2 4 2 3
10 11 13 14 16 18 20 22 24 26 18 11 12 9 10 8 8 11 8 6 5 4 1 3 4 6 5 4 2 10 9 6 8 9 6 3 3 7 1 4 8 6 6 5 8 4 2
10 11 13 14 16 17 19 22 24 25 21 9 15 9 7 3 2 1 3 3 4 2 4 8 8 6 9 5 3 11 5 5 2 7 4 0 9 5 6 5 4 2 2 4 12 5 5
11 12 13 15 17 18 19 20 22 24 23 10 13 10 5 3 1 1 1 1 2 1 6 10 7 9 10 3 4 6 7 5 4 2 5 3 7 7 6 4 3 3 2 4 4 5 5
10 12 13 14 16 18 19 20 21 22 23 12 11 10 6 2 2 1 2 3 3 6 2 6 5 7 6 7 5 7 4 5 3 6 6 2 2 3 1 2 4 3 4 8 5 4 2
11 12 14 15 16 17 19 20 22 22 22 14 7 11 8 3 1 1 4 3 5 6 2 6 3 5 5 4 5 3 5 7 4 5 5 6 4 6 2 3 2 8 7 3 3 3 4
13 13 14 15 15 17 18 19 21 22 22 15 5 10 10 5 1 2 2 4 7 5 1 1 3 6 1 4 3 6 3 5 6 5 1 3 5 7 7 2 2 5 4 4 5 4 3
14 14 14 15 16 16 18 18 20 21 22 15 5 4 13 7 1 1 1 5 6 3 2 4 5 3 5 4 1 3 4 3 2 4 3 2 2 2 2 3 3 2 2 2 5 3 4
16 15 15 16 16 16 17 18 20 20 21 13 5 3 10 5 2 1 4 3 2 0 2 1 2 4 5 6 4 4 3 2 4 2 2 3 4 2 4 6 2 2 3 2 3 3 1
19 19 17 16 16 16 16 18 18 19 19 11 5 3 10 2 2 3 4 3 1 2 3 2 1 2 4 4 5 4 5 2 4 7 4 1 3 4 3 3 2 4 3 3 4 3 3
19 20 20 17 15 15 15 16 16 17 17 10 3 2 8 2 3 4 2 1 1 0 2 3 0 0 1 2 5 4 3 2 10 7 5 3 4 3 0 2 1 1 1 3 4 2 2
22 22 21 20 17 14 14 14 14 15 16 12 6 2 4 4 2 1 1 2 2 1 0 2 1 0 2 1 3 1 1 2 6 3 2 4 3 2 5 4 2 1 1 3 4 3 1
25 23 23 21 18 14 13 12 11 12 13 10 3 2 1 2 2 6 4 3 2 1 1 1 2 2 2 1 1 1 1 2 3 3 4 3 3 3 4 1 2 1 2 2 4 4 4
29 27 25 23 20 16 13 11 10 9 10 7 2 1 1 1 3 1 2 6 3 1 2 1 2 0 2 2 0 2 2 3 0 3 3 3 2 2 4 5 2 4 5 5 5 4 5
32 30 27 24 22 19 16 12 9 8 7 5 2 1 2 2 3 1 1 4 6 2 3 2 1 0 2 2 2 1 4 5 2 3 2 1 1 1 1 3 0 5 7 8 4 2 6
36 32 30 27 24 22 18 14 11 8 6 4 3 2 2 2 2 4 3 2 3 6 1 1 1 2 1 1 1 2 2 3 2 1 3 2 2 3 2 4 6 2 1 4 4 4 4
35 33 31 29 26 24 20 17 14 10 7 6 5 5 3 3 3 4 5 5 3 3 3 2 1 1 0 4 8 4 2 2 2 6 3 2 2 2 3 6 4 4 4 4 6 5 6
39 34 33 31 28 26 23 19 16 12 10 8 7 7 5 3 5 3 6 5 8 4 3 3 3 2 2 3 4 4 3 1 4 5 5 5 2 2 2 1 7 3 3 2 2 2 4
43 37 33 34 31 28 25 21 18 15 13 11 10 9 6 3 5 2 5 7 3 4 1 4 3 2 2 2 2 2 4 4 2 1 6 4 5 3 2 2 5 2 1 2 1 1 2
46 40 37 36 33 29 26 23 20 18 16 14 11 11 8 5 6 8 4 6 6 4 3 4 5 5 5 3 2 3 4 1 3 4 4 2 2 4 2 3 7 2 3 1 3 5 6
48 42 38 35 36 32 29 26 22 18 17 17 14 13 13 6 6 10 9 6 6 5 4 8 4 2 2 3 4 4 3 3 0 4 5 6 6 4 3 3 7 6 2 4 5 7 6
49 42 40 37 36 36 32 29 25 21 18 17 16 13 14 8 5 10 12 12 10 8 7 11 2 4 7 2 1 2 1 0 3 3 1 2 5 4 8 5 3 10 3 6 9 11 7
Wind_Direction
33 34 35 31 30 25 23 21 9 3 1 3 360 6 8 9 12 17 21 23 34 39 46 58 43 18 10 40 11 7 7 26 188 166 200 178 146 121 190 340 245 244 185 248 268 277 227
32 33 34 33 30 21 17 18 7 355 349 355 359 5 8 12 16 23 33 35 39 43 44 57 60 43 47 68 355 334 314 109 38 181 151 183 172 128 119 287 245 202 221 262 269 279 198
27 29 28 28 27 25 19 7 2 349 338 343 359 5 13 22 18 21 24 21 25 45 59 56 37 26 39 33 9 17 51 59 264 194 184 179 175 150 101 251 226 218 191 254 252 281 124
22 24 24 23 21 19 15 12 0 340 326 320 336 354 23 36 47 41 38 40 31 29 37 18 14 45 45 4 9 29 25 5 196 146 134 118 157 133 197 274 261 208 126 140 268 280 5
17 18 19 20 18 17 12 10 6 353 318 299 278 299 337 30 17 8 359 15 21 19 358 355 5 123 13 342 357 18 1 105 141 143 113 85 111 178 166 172 86 244 169 130 102 340 34
9 11 13 12 13 14 12 7 8 6 349 306 278 267 281 307 335 4 353 2 8 38 51 39 33 63 354 2 25 78 86 117 101 128 173 194 166 158 103 134 187 186 140 145 153 215 109
2 6 6 7 7 11 9 7 7 7 359 331 309 281 271 276 294 321 9 33 19 66 49 71 69 117 4 6 30 29 27 346 196 189 142 218 47 95 201 213 193 154 123 128 107 75 114
354 359 356 0 4 4 6 7 6 6 3 355 324 301 296 279 269 281 313 346 28 41 341 97 42 54 77 47 322 349 357 9 333 23 120 20 112 292 312 301 210 66 107 121 49 79 87
348 348 350 352 358 360 1 4 4 6 9 4 354 330 322 310 270 258 275 297 281 307 286 337 339 2 12 26 24 356 351 6 89 57 30 71 312 306 303 355 102 41 139 183 149 150 23
342 339 340 345 349 355 359 0 4 4 5 3 2 354 352 14 40 246 250 258 271 278 68 317 343 360 347 341 68 22 48 82 82 137 189 61 316 30 56 43 354 93 320 197 136 98 166
333 329 334 339 343 347 353 357 1 2 0 356 357 3 0 9 345 312 300 187 174 140 48 298 318 342 0 45 307 18 47 73 4 135 136 278 3 38 57 320 339 194 336 90 130 99 93
320 323 328 334 338 342 346 351 357 0 1 353 1 6 1 338 40 87 138 147 132 43 300 325 308 332 14 9 17 11 21 32 34 51 27 81 356 75 264 292 219 218 54 43 46 72 45
310 315 321 327 333 336 342 345 350 356 358 353 12 18 14 357 289 197 158 155 32 88 304 304 309 337 331 338 348 63 61 44 35 57 10 8 0 332 27 282 223 58 61 34 27 14 205
304 307 313 318 326 330 336 340 346 349 353 355 309 16 15 21 320 225 185 58 74 237 270 332 296 306 235 349 322 25 73 28 3 39 98 125 356 358 338 47 97 39 123 159 168 173 217
296 301 307 312 319 327 329 336 340 347 351 354 345 356 19 21 12 138 10 50 179 202 275 329 319 30 343 345 310 85 70 30 28 29 95 108 322 253 320 12 65 351 49 192 109 4 69
288 293 300 307 313 322 326 331 337 347 348 353 357 346 15 21 34 356 76 168 182 284 307 300 39 21 7 334 37 30 40 347 329 345 61 287 85 1 359 23 289 240 179 71 3 106 81
287 289 293 300 307 315 324 326 335 343 348 350 359 8 2 120 7 46 111 188 140 212 237 143 54 15 10 0 2 20 340 351 358 317 346 14 97 314 40 20 326 347 21 37 111 99 138
276 282 287 291 299 309 317 323 331 340 348 350 345 30 360 22 56 51 73 32 49 338 297 298 318 317 134 15 14 33 25 336 352 331 332 351 125 85 269 249 235 229 20 84 100 341 39
268 271 276 281 288 298 308 315 328 339 346 351 330 336 357 342 107 60 226 58 12 255 305 309 300 21 289 296 118 114 111 294 352 34 59 350 345 91 348 346 311 148 154 116 113 88 158
262 262 267 270 276 283 293 303 317 331 340 341 342 356 82 44 63 136 155 179 186 206 277 308 302 314 285 208 184 92 129 231 351 2 334 338 74 140 183 205 109 178 180 184 121 114 198
256 254 254 259 264 269 275 286 301 319 332 332 326 239 267 294 338 67 128 170 144 243 219 222 271 226 350 338 330 98 354 137 125 330 335 86 100 48 293 278 258 226 216 193 175 203 166
248 250 251 251 254 258 262 270 284 302 314 286 253 221 193 221 149 65 358 218 186 161 155 222 198 13 10 51 30 286 0 29 59 339 33 24 229 56 303 33 353 246 229 228 241 236 273
246 243 243 243 244 247 253 259 267 276 279 252 222 191 254 192 198 118 213 220 148 130 144 116 40 54 251 131 325 258 277 274 279 28 358 38 75 28 301 317 283 26 330 177 162 184 177
238 237 234 235 235 239 243 248 251 258 259 238 221 195 184 267 176 208 167 147 152 139 140 157 76 84 161 307 301 268 301 280 16 16 57 44 65 69 289 349 12 256 46 90 113 43 13
234 233 231 229 229 233 237 240 243 243 246 241 222 208 191 240 205 173 162 147 138 150 165 160 184 193 312 356 29 3 344 4 32 43 17 48 74 53 86 291 293 102 1 43 113 49 7
229 230 232 229 226 228 230 234 238 238 237 237 227 214 201 170 237 157 165 185 174 169 129 174 193 197 154 85 85 179 230 231 233 20 14 65 77 103 127 159 236 280 220 84 111 262 77
225 226 229 228 227 224 227 230 236 234 231 234 228 219 212 218 212 189 176 185 184 165 137 149 170 155 171 119 158 200 248 207 219 188 156 96 68 185 201 242 281 224 201 339 127 217 155
220 221 225 226 225 224 225 228 226 231 228 227 229 220 211 239 209 204 204 181 172 187 160 158 110 210 112 164 166 223 183 234 6 161 174 166 149 199 184 209 268 175 148 189 166 148 159
214 216 220 223 224 226 225 226 223 223 225 226 222 217 214 215 270 208 214 215 205 197 185 177 209 155 176 121 202 121 194 131 167 242 206 210 191 189 191 218 198 186 223 257 215 201 178
Height
1550 1547 1544 1541 1539 1537 1535 1533 1531 1530 1528 1526 1524 1523 1520 1517 1514 1511 1509 1506 1504 1501 1499 1498 1498 1496 1495 1495 1496 1494 1493 1492 1492 1492 1493 1494 1495 1500 1504 1507 1507 1507 1506 1506 1506 1504 1500
1552 1549 1546 1544 1541 1538 1536 1534 1532 1530 1528 1526 1525 1523 1521 1518 1515 1513 1510 1508 1506 1504 1503 1501 1499 1497 1495 1496 1495 1492 1491 1492 1491 1492 1493 1494 1496 1499 1506 1509 1508 1503 1506 1506 1504 1501 1497
1553 1551 1548 1546 1543 1540 1537 1534 1532 1530 1528 1527 1525 1524 1522 1519 1516 1514 1512 1510 1508 1506 1504 1503 1500 1499 1498 1500 1495 1492 1491 1491 1491 1492 1494 1494 1495 1497 1507 1509 1506 1503 1511 1508 1502 1500 1500
1554 1552 1549 1547 1544 1541 1538 1534 1531 1529 1527 1526 1525 1524 1523 1520 1517 1515 1513 1511 1509 1507 1505 1503 1501 1500 1499 1497 1495 1492 1492 1491 1491 1492 1495 1496 1496 1498 1506 1503 1503 1506 1507 1514 1501 1500 1499
1555 1552 1550 1547 1545 1542 1538 1535 1531 1528 1526 1525 1524 1523 1522 1521 1518 1516 1513 1512 1509 1506 1504 1503 1501 1500 1501 1499 1496 1494 1493 1488 1490 1494 1494 1495 1497 1499 1506 1505 1510 1505 1515 1510 1506 1501 1499
1555 1553 1551 1548 1545 1543 1539 1535 1531 1527 1524 1523 1522 1522 1521 1519 1518 1516 1513 1511 1509 1508 1504 1503 1502 1505 1504 1501 1497 1496 1494 1492 1494 1495 1497 1497 1498 1499 1502 1508 1520 1507 1507 1505 1511 1506 1505
1556 1553 1551 1548 1546 1543 1539 1535 1531 1527 1524 1522 1521 1520 1519 1518 1517 1515 1514 1511 1511 1511 1507 1506 1506 1504 1503 1502 1501 1497 1495 1493 1494 1495 1494 1493 1494 1505 1504 1500 1495 1494 1501 1504 1504 1502 1506
1555 1553 1551 1549 1546 1543 1539 1536 1531 1527 1523 1522 1520 1518 1517 1515 1515 1514 1514 1512 1511 1513 1510 1507 1505 1505 1504 1503 1501 1497 1495 1496 1491 1494 1493 1496 1504 1498 1499 1495 1491 1495 1502 1507 1505 1502 1506
1556 1554 1551 1549 1546 1543 1540 1536 1532 1527 1523 1521 1519 1517 1514 1512 1511 1513 1512 1512 1511 1511 1510 1508 1506 1504 1504 1504 1503 1500 1499 1496 1499 1499 1498 1503 1500 1495 1497 1496 1492 1500 1503 1508 1508 1505 1507
1556 1554 1551 1549 1546 1542 1539 1536 1532 1528 1523 1521 1519 1516 1514 1511 1513 1511 1511 1510 1510 1510 1522 1516 1507 1506 1503 1502 1504 1502 1499 1502 1499 1505 1503 1506 1502 1498 1497 1500 1498 1503 1504 1501 1504 1515 1531
1556 1554 1551 1549 1546 1543 1539 1536 1532 1528 1524 1521 1518 1515 1514 1512 1512 1512 1513 1511 1510 1511 1552 1514 1508 1506 1504 1504 1504 1503 1501 1499 1502 1499 1503 1509 1504 1506 1506 1508 1505 1504 1502 1499 1504 1513 1526
1554 1553 1551 1548 1545 1543 1539 1535 1532 1528 1524 1521 1518 1515 1514 1514 1513 1513 1511 1512 1513 1531 1552 1522 1510 1507 1505 1502 1502 1502 1502 1502 1501 1501 1502 1505 1504 1507 1508 1505 1506 1500 1498 1503 1512 1521 1547
1552 1551 1550 1547 1545 1542 1539 1535 1532 1528 1524 1520 1519 1516 1514 1513 1514 1513 1512 1513 1530 1546 1525 1522 1517 1511 1510 1507 1503 1504 1506 1509 1513 1517 1512 1509 1508 1506 1507 1507 1501 1498 1511 1546 1547 1551 1544
1551 1550 1548 1546 1544 1541 1538 1535 1531 1527 1523 1519 1518 1517 1515 1513 1513 1513 1513 1516 1539 1528 1522 1517 1515 1512 1511 1508 1506 1506 1508 1516 1512 1512 1516 1521 1523 1513 1508 1510 1510 1508 1517 1534 1534 1542 1544
1548 1548 1547 1545 1543 1540 1537 1534 1530 1526 1522 1518 1517 1517 1516 1514 1513 1514 1515 1535 1530 1523 1522 1521 1516 1515 1514 1509 1510 1508 1517 1520 1516 1515 1520 1517 1521 1515 1513 1509 1509 1511 1527 1516 1530 1532 1539
1546 1545 1544 1543 1541 1539 1536 1533 1529 1526 1522 1518 1517 1515 1515 1514 1514 1514 1518 1529 1524 1522 1521 1521 1521 1516 1519 1515 1512 1511 1517 1518 1517 1514 1514 1513 1518 1515 1511 1510 1513 1514 1513 1522 1529 1526 1528
1543 1542 1541 1540 1540 1537 1535 1532 1528 1526 1522 1518 1516 1515 1515 1514 1514 1515 1530 1528 1523 1522 1521 1521 1521 1520 1519 1518 1516 1518 1520 1518 1516 1513 1511 1511 1516 1520 1516 1523 1523 1520 1517 1516 1520 1527 1537
1538 1539 1539 1537 1537 1535 1533 1531 1528 1524 1522 1519 1517 1516 1516 1514 1516 1519 1526 1523 1522 1523 1523 1522 1521 1518 1519 1518 1519 1518 1519 1521 1518 1517 1515 1513 1516 1537 1523 1520 1519 1518 1516 1518 1533 1526 1535
1534 1534 1534 1535 1534 1533 1532 1530 1527 1524 1521 1518 1517 1516 1516 1515 1521 1526 1523 1524 1524 1523 1522 1522 1520 1520 1519 1518 1521 1517 1519 1519 1518 1517 1519 1519 1519 1540 1529 1525 1518 1516 1515 1516 1522 1532 1533
1528 1528 1529 1530 1530 1530 1529 1528 1526 1523 1521 1520 1518 1519 1515 1515 1515 1516 1520 1522 1523 1522 1522 1522 1522 1521 1519 1517 1517 1519 1519 1520 1519 1518 1517 1518 1520 1524 1529 1517 1518 1517 1516 1516 1521 1544 1532
1522 1523 1523 1524 1525 1526 1527 1526 1525 1523 1521 1521 1518 1516 1517 1519 1517 1516 1515 1518 1521 1522 1522 1522 1521 1521 1521 1520 1517 1518 1517 1520 1519 1518 1517 1518 1524 1529 1521 1519 1516 1517 1517 1518 1526 1523 1526
1513 1516 1517 1519 1520 1522 1522 1522 1522 1521 1519 1519 1517 1516 1516 1516 1514 1517 1518 1517 1517 1519 1521 1520 1521 1520 1520 1521 1522 1521 1521 1523 1522 1519 1518 1519 1525 1522 1520 1517 1517 1518 1518 1519 1521 1519 1520
1504 1507 1509 1512 1514 1516 1517 1518 1519 1519 1518 1516 1514 1514 1515 1514 1514 1515 1517 1515 1516 1517 1519 1519 1520 1520 1520 1523 1522 1521 1521 1520 1520 1521 1522 1521 1524 1531 1521 1521 1517 1515 1509 1514 1513 1512 1511
1495 1497 1500 1504 1507 1509 1511 1513 1513 1515 1516 1514 1512 1513 1514 1514 1512 1512 1510 1511 1515 1516 1517 1518 1519 1519 1521 1520 1520 1520 1520 1519 1519 1520 1520 1522 1522 1529 1538 1524 1527 1509 1507 1508 1510 1515 1514
1485 1488 1491 1495 1498 1501 1505 1507 1509 1509 1511 1511 1509 1510 1510 1512 1509 1510 1510 1510 1512 1514 1516 1517 1518 1518 1519 1519 1522 1523 1523 1520 1523 1523 1523 1524 1527 1531 1535 1537 1522 1508 1510 1510 1508 1519 1517
1474 1479 1482 1487 1490 1492 1497 1501 1503 1505 1506 1507 1507 1507 1507 1508 1506 1505 1508 1510 1513 1513 1515 1515 1516 1517 1519 1520 1522 1522 1523 1514 1520 1525 1525 1526 1528 1534 1537 1535 1530 1511 1510 1509 1509 1519 1516
1462 1467 1472 1476 1482 1484 1488 1493 1497 1499 1500 1502 1503 1504 1505 1504 1502 1504 1505 1506 1507 1509 1511 1513 1514 1516 1516 1521 1527 1528 1522 1512 1517 1519 1529 1532 1535 1537 1538 1543 1523 1508 1509 1509 1515 1516 1511
1449 1454 1461 1466 1472 1476 1480 1485 1489 1493 1495 1496 1498 1500 1501 1502 1499 1499 1502 1502 1504 1506 1509 1510 1513 1514 1517 1521 1523 1520 1521 1516 1516 1517 1522 1525 1536 1536 1535 1535 1529 1506 1510 1512 1509 1509 1511
1434 1442 1450 1457 1463 1467 1471 1476 1482 1486 1489 1490 1493 1495 1497 1499 1502 1496 1498 1500 1502 1504 1505 1507 1507 1506 1509 1514 1517 1516 1517 1518 1519 1520 1512 1518 1514 1517 1517 1513 1503 1505 1506 1507 1507 1507 1509